{"data":{"norad_id":61729,"intl_designator":"2024-196Y","name":"STARLINK-32442","alt_names":[],"object_type":"PAYLOAD","status":"ACTIVE","operator":null,"country":"US","launch_date":"2024-10-30","launch_site_code":"AFETR","launch_vehicle":null,"mission":null,"orbit_class":"UNKNOWN","rcs_meters":null,"size_class":null,"mass_kg":null,"dimensions":null,"purposes":["comms"],"wikipedia_slug":null,"has_3d_model":false,"image_url":null,"decayed_at":null,"tle_current":{"epoch":"2026-05-25T03:36:15.239232Z","epoch_age_seconds":72556,"freshness":"FRESH","line1":"1 61729U 24196Y   26145.15017638 -.00001003  00000+0 -21749-4 0  9998","line2":"2 61729  53.1586 106.1398 0001756  93.7307 266.3895 15.30181690 88864","mean_motion":15.3018169,"eccentricity":0.0001756,"inclination_deg":53.1586,"raan_deg":106.1398,"arg_perigee_deg":93.7307,"mean_anomaly_deg":266.3895,"bstar":-2.1749e-5,"rev_number":8886,"period_min":94.106471761533,"perigee_km":474.06628210047,"apogee_km":476.47319854767,"semimajor_km":6853.4067403241,"source":"CELESTRAK","updated_at":"2026-05-25T13:38:19.448960Z"}}}